Flag for China Weather past 2 weeks in Tianjin, Tianjin Municipality, China

Now
46 °F

Haze.


Feels Like: 46 °F
Forecast: 26 / 43 °F
Wind: 1 mph from West

Location: Tianjin / Zhangguizhu

Current Time: Dec 29, 2014 at 12:39:06 PM

Latest Report: Dec 29, 2014 at 12:00 PM


Visibility: 1 mi

Pressure: 29.92 "Hg

Humidity: 29%

Dew point: 16 °F

Location of TianjinLocation

Historic Weather in Tianjin — Graph

°F

Tianjin temperature yesterday

Maximum temperature yesterday: 46 °F (at 2:00 PM)
Minimum temperature yesterday: 25 °F (at 8:00 AM)
Average temperature yesterday: 37 °F

Past Weeks' High & Low Weather Summary

 TemperatureHumidityPressure
High48 °F (Dec 22, 1:00 PM)93% (Dec 15, 8:00 AM)30.57 "Hg (Dec 15, 8:00 AM)
Low21 °F (Dec 16, 8:00 PM)14% (Dec 21, 2:00 PM)29.95 "Hg (Dec 29, 4:30 AM)
Average32 °F43%30.33 "Hg
* Reported Dec 14 11:30 AM — Dec 29 11:00 AM, Tianjin, Weather by CustomWeather, © 2014

Note: Actual official high and low records may vary slightly from our data, if they occured in-between our weather recording intervals... More about our weather records

Advertising

Tianjin weather history for previous 24 hours

 ConditionsComfort  
Time TempWeatherWind HumidityBarometerVisibility
11:00 AM
Dec 29
41 °FHaze.6 mph36%29.95 "Hg1 mi
10:30 AM39 °FHaze.3 mph42%29.95 "Hg1 mi
10:00 AM37 °FHaze.3 mph41%29.95 "Hg1 mi
9:30 AM36 °FHaze.1 mph48%29.95 "Hg1 mi
9:00 AM34 °FHaze.3 mph48%29.95 "Hg1 mi
8:30 AM30 °FHaze.1 mph59%29.95 "Hg1 mi
8:00 AM32 °FHaze.6 mph55%29.95 "Hg1 mi
7:30 AM32 °FHaze.3 mph55%29.95 "Hg1 mi
7:00 AM32 °FHaze.6 mph55%29.95 "Hg1 mi
6:30 AM32 °FHaze.3 mph51%29.95 "Hg1 mi
6:00 AM34 °FHaze.3 mph44%29.95 "Hg1 mi
5:30 AM32 °FHaze.3 mph47%29.95 "Hg1 mi
4:30 AM32 °FHaze.3 mph51%29.95 "Hg1 mi
4:00 AM34 °FHaze.3 mph48%29.98 "Hg1 mi
3:30 AM36 °FHaze.6 mph44%29.98 "Hg1 mi
3:00 AM34 °FHaze.3 mph48%29.98 "Hg1 mi
2:30 AM36 °FHaze.3 mph44%30.01 "Hg1 mi
2:00 AM36 °FHaze.3 mph44%30.01 "Hg1 mi
1:30 AM36 °FHaze.6 mph44%30.01 "Hg1 mi
1:00 AM36 °FHaze.3 mph44%30.01 "Hg1 mi
12:30 AM36 °FHaze.6 mph44%30.01 "Hg1 mi
12:00 AM37 °FHaze.6 mph41%30.04 "Hg1 mi
11:30 PM
Dec 28
37 °FHaze.3 mph38%30.04 "Hg1 mi
11:00 PM37 °FHaze.6 mph38%30.07 "Hg1 mi
10:30 PM37 °FHaze.6 mph41%30.07 "Hg1 mi
10:00 PM37 °FHaze.3 mph41%30.07 "Hg1 mi
9:30 PM37 °FHaze.3 mph41%30.07 "Hg1 mi
9:00 PM39 °FHaze.3 mph39%30.07 "Hg1 mi
8:30 PM37 °FHaze.1 mph45%30.07 "Hg1 mi
8:00 PM39 °FHaze.3 mph39%30.07 "Hg1 mi
7:30 PM39 °FHaze.3 mph39%30.07 "Hg1 mi
7:00 PM41 °FHaze.3 mph36%30.07 "Hg1 mi
6:30 PM41 °FHaze.6 mph33%30.07 "Hg2 mi
6:00 PM43 °FHaze.3 mph29%30.07 "Hg2 mi
5:30 PM43 °FHaze.3 mph29%30.07 "Hg2 mi
5:00 PM43 °FHaze.3 mph26%30.07 "Hg2 mi
4:30 PM45 °FClear.3 mph25%30.07 "Hg4 mi
4:00 PM46 °FClear.6 mph23%30.07 "Hg4 mi
3:30 PM46 °FHaze.6 mph23%30.07 "Hg3 mi
3:00 PM46 °FHaze.10 mph23%30.07 "Hg2 mi
2:30 PM46 °FHaze.10 mph25%30.07 "Hg2 mi
2:00 PM46 °FHaze.10 mph25%30.07 "Hg2 mi
1:30 PM45 °FHaze.10 mph29%30.07 "Hg2 mi
1:00 PM45 °FHaze.8 mph27%30.07 "Hg1 mi
12:30 PM45 °FHaze.8 mph29%30.09 "Hg1 mi
Weather by CustomWeather, © 2014

See weather overviewHow to use our weather pages